H1 CPF 2 NER 2023 5 9 9 129 01 glonass106 H2 0705201 9106 32275 2023 5 9 0 0 0 2023 5 12 23 45 0 900 1 1 0 0 0 1 H9 10 0 60073 0.00000 0 13679777.026 -21095496.154 4302276.390 10 0 60073 900.00000 0 13689415.342 -21497708.398 1075617.546 10 0 60073 1800.00000 0 13461157.176 -21559893.124 -2171936.869 10 0 60073 2700.00000 0 13045079.695 -21253168.674 -5377305.864 10 0 60073 3600.00000 0 12497077.281 -20561209.391 -8478240.798 10 0 60073 4500.00000 0 11876307.389 -19481086.064 -11414535.186 10 0 60073 5400.00000 0 11242512.791 -18023559.083 -14129193.408 10 0 60073 6300.00000 0 10653333.744 -16212811.605 -16569535.514 10 0 60073 7200.00000 0 10161723.807 -14085633.515 -18688216.747 10 0 60073 8100.00000 0 9813578.385 -11690089.899 -20444142.305 10 0 60073 9000.00000 0 9645675.883 -9083729.133 -21803260.128 10 0 60073 9900.00000 0 9684018.030 -6331404.746 -22739216.872 10 0 60073 10800.00000 0 9942639.081 -3502801.039 -23233865.023 10 0 60073 11700.00000 0 10422933.860 -669764.515 -23277611.914 10 0 60073 12600.00000 0 11113532.980 2096448.902 -22869604.286 10 0 60073 13500.00000 0 11990730.700 4727897.579 -22017745.081 10 0 60073 14400.00000 0 13019447.916 7162536.781 -20738542.123 10 0 60073 15300.00000 0 14154690.418 9346553.948 -19056791.366 10 0 60073 16200.00000 0 15343441.873 11236360.586 -17005100.394 10 0 60073 17100.00000 0 16526912.731 12800158.845 -14623260.792 10 0 60073 18000.00000 0 17643051.153 14019018.353 -11957480.908 10 0 60073 18900.00000 0 18629210.822 14887419.154 -9059493.263 10 0 60073 19800.00000 0 19424863.637 15413238.781 -5985553.397 10 0 60073 20700.00000 0 19974243.018 15617184.689 -2795349.277 10 0 60073 21600.00000 0 20228806.170 15531696.550 449157.668 10 0 60073 22500.00000 0 20149410.972 15199365.252 3684937.289 10 0 60073 23400.00000 0 19708114.963 14670935.824 6849117.499 10 0 60073 24300.00000 0 18889519.692 14002979.183 9880208.842 10 0 60073 25200.00000 0 17691602.759 13255331.574 12719302.573 10 0 60073 26100.00000 0 16126001.494 12488410.419 15311218.467 10 0 60073 27000.00000 0 14217735.287 11760520.469 17605579.663 10 0 60073 27900.00000 0 12004377.212 11125264.420 19557793.451 10 0 60073 28800.00000 0 9534708.784 10629167.688 21129918.796 10 0 60073 29700.00000 0 6866913.264 10309617.757 22291403.844 10 0 60073 30600.00000 0 4066382.232 10193205.181 23019679.279 10 0 60073 31500.00000 0 1203226.231 10294536.267 23300596.224 10 0 60073 32400.00000 0 -1650407.480 10615567.509 23128700.477 10 0 60073 33300.00000 0 -4423099.082 11145489.893 22507337.919 10 0 60073 34200.00000 0 -7046887.901 11861168.068 21448589.190 10 0 60073 35100.00000 0 -9459858.712 12728115.999 19973034.875 10 0 60073 36000.00000 0 -11608475.790 13701968.249 18109355.630 10 0 60073 36900.00000 0 -13449568.252 14730385.062 15893774.829 10 0 60073 37800.00000 0 -14951884.817 15755311.160 13369354.343 10 0 60073 38700.00000 0 -16097154.038 16715493.124 10585156.903 10 0 60073 39600.00000 0 -16880606.693 17549149.188 7595291.256 10 0 60073 40500.00000 0 -17310939.588 18196678.690 4457858.688 10 0 60073 41400.00000 0 -17409723.480 18603296.620 1233821.533 10 0 60073 42300.00000 0 -17210281.191 18721481.731 -2014183.996 10 0 60073 43200.00000 0 -16756084.334 18513134.475 -5223067.168 10 0 60073 44100.00000 0 -16098737.272 17951353.310 -8330510.199 10 0 60073 45000.00000 0 -15295634.301 17021753.966 -11276179.504 10 0 60073 45900.00000 0 -14407389.653 15723275.657 -14002896.929 10 0 60073 46800.00000 0 -13495149.240 14068439.767 -16457748.153 10 0 60073 47700.00000 0 -12617897.835 12083049.619 -18593106.774 10 0 60073 48600.00000 0 -11829875.196 9805343.287 -20367554.538 10 0 60073 49500.00000 0 -11178209.818 7284634.205 -21746680.364 10 0 60073 50400.00000 0 -10700869.574 4579495.552 -22703743.237 10 0 60073 51300.00000 0 -10425015.020 1755563.240 -23220186.780 10 0 60073 52200.00000 0 -10365824.173 -1116952.054 -23285996.109 10 0 60073 53100.00000 0 -10525837.792 -3965941.400 -22899890.508 10 0 60073 54000.00000 0 -10894852.481 -6720152.575 -22069348.430 10 0 60073 54900.00000 0 -11450366.080 -9311910.197 -20810464.336 10 0 60073 55800.00000 0 -12158556.818 -11679689.071 -19147639.923 10 0 60073 56700.00000 0 -12975755.420 -13770434.845 -17113115.251 10 0 60073 57600.00000 0 -13850348.700 -15541536.333 -14746348.262 10 0 60073 58500.00000 0 -14725034.993 -16962368.116 -12093254.055 10 0 60073 59400.00000 0 -15539336.854 -18015339.801 -9205318.064 10 0 60073 60300.00000 0 -16232265.349 -18696408.657 -6138599.757 10 0 60073 61200.00000 0 -16745023.647 -19015034.759 -2952645.946 10 0 60073 62100.00000 0 -17023635.579 -18993581.013 290665.372 10 0 60073 63000.00000 0 -17021387.774 -18666183.838 3528328.080 10 0 60073 63900.00000 0 -16700981.551 -18077142.554 6697434.198 10 0 60073 64800.00000 0 -16036302.865 -17278895.853 9736399.114 10 0 60073 65700.00000 0 -15013734.590 -16329671.249 12586161.481 10 0 60073 66600.00000 0 -13632954.696 -15290907.134 15191333.967 10 0 60073 67500.00000 0 -11907185.573 -14224556.681 17501282.111 10 0 60073 68400.00000 0 -9862882.812 -13190387.645 19471110.119 10 0 60073 69300.00000 0 -7538875.414 -12243392.209 21062534.286 10 0 60073 70200.00000 0 -4984992.359 -11431416.132 22244627.198 10 0 60073 71100.00000 0 -2260231.949 -10793107.075 22994418.422 10 0 60073 72000.00000 0 569450.518 -10356268.376 23297340.265 10 0 60073 72900.00000 0 3433645.380 -10136687.361 23147510.200 10 0 60073 73800.00000 0 6260178.115 -10137487.270 22547844.668 10 0 60073 74700.00000 0 8977874.463 -10349029.790 21510002.162 10 0 60073 75600.00000 0 11519286.836 -10749372.122 20054156.663 10 0 60073 76500.00000 0 13823269.225 -11305259.088 18208605.715 10 0 60073 77400.00000 0 15837294.030 -11973608.380 16009220.539 10 0 60073 78300.00000 0 17519414.960 -12703426.161 13498748.649 10 0 60073 79200.00000 0 18839794.839 -13438072.103 10725982.319 10 0 60073 80100.00000 0 19781735.265 -14117778.046 7744808.950 10 0 60073 81000.00000 0 20342165.940 -14682313.691 4613161.853 10 0 60073 81900.00000 0 20531574.147 -15073686.367 1391891.957 10 0 60073 82800.00000 0 20373378.360 -15238760.411 -1856417.248 10 0 60073 83700.00000 0 19902773.408 -15131685.021 -5068668.128 10 0 60073 84600.00000 0 19165096.834 -14716027.521 -8182476.563 10 0 60073 85500.00000 0 18213786.195 -13966521.466 -11137384.570 10 0 60074 0.00000 0 17108014.269 -12870355.401 -13876033.794 10 0 60074 900.00000 0 15910101.769 -11427946.753 -16345278.420 10 0 60074 1800.00000 0 14682818.388 -9653169.222 -18497212.330 10 0 60074 2700.00000 0 13486683.903 -7573021.459 -20290095.762 10 0 60074 3600.00000 0 12377384.120 -5226751.505 -21689160.306 10 0 60074 4500.00000 0 11403409.349 -2664472.213 -22667278.657 10 0 60074 5400.00000 0 10604014.105 54675.512 -23205486.603 10 0 60074 6300.00000 0 10007583.062 2864736.155 -23293347.707 10 0 60074 7200.00000 0 9630471.168 5695438.800 -22929154.049 10 0 60074 8100.00000 0 9476366.027 8474879.330 -22119959.442 10 0 60074 9000.00000 0 9536198.851 11132275.398 -20881444.440 10 0 60074 9900.00000 0 9788607.471 13600680.729 -19237615.545 10 0 60074 10800.00000 0 10200931.865 15819546.957 -17220343.988 10 0 60074 11700.00000 0 10730700.410 17737027.284 -14868752.399 10 0 60074 12600.00000 0 11327544.476 19311926.703 -12228460.615 10 0 60074 13500.00000 0 11935460.884 20515218.036 -9350704.623 10 0 60074 14400.00000 0 12495326.949 21331060.920 -6291345.170 10 0 60074 15300.00000 0 12947561.953 21757281.473 -3109784.996 10 0 60074 16200.00000 0 13234822.453 21805292.905 132184.440 10 0 60074 17100.00000 0 13304617.130 21499460.742 3371584.249 10 0 60074 18000.00000 0 13111730.045 20875939.732 6545473.767 10 0 60074 18900.00000 0 12620349.073 19981031.755 9592176.343 10 0 60074 19800.00000 0 11805808.635 18869134.330 12452480.987 10 0 60074 20700.00000 0 10655872.041 17600366.523 15070795.997 10 0 60074 21600.00000 0 9171498.195 16237972.689 17396231.791 10 0 60074 22500.00000 0 7367059.136 14845613.682 19383591.678 10 0 60074 23400.00000 0 5269998.024 13484659.805 20994251.152 10 0 60074 24300.00000 0 2919940.715 12211599.480 22196908.760 10 0 60074 25200.00000 0 367296.920 11075672.519 22968194.080 10 0 60074 26100.00000 0 -2328591.622 10116827.279 23293121.291 10 0 60074 27000.00000 0 -5101679.692 9364087.167 23165379.743 10 0 60074 27900.00000 0 -7881731.885 8834394.653 22587456.114 10 0 60074 28800.00000 0 -10597016.724 8531980.851 21570585.861 10 0 60074 29700.00000 0 -13177070.196 8448286.597 20134534.914 10 0 60074 30600.00000 0 -15555414.271 8562437.793 18307215.720 10 0 60074 31500.00000 0 -17672117.735 8842254.502 16124144.888 10 0 60074 32400.00000 0 -19476093.156 9245750.769 13627752.743 10 0 60074 33300.00000 0 -20927034.680 9723061.502 10866558.004 10 0 60074 34200.00000 0 -21996916.243 10218714.595 7894223.501 10 0 60074 35100.00000 0 -22670988.165 10674151.905 4768511.314 10 0 60074 36000.00000 0 -22948231.094 11030392.020 1550157.793 10 0 60074 36900.00000 0 -22841249.033 11230721.749 -1698309.351 10 0 60074 37800.00000 0 -22375606.817 11223301.944 -4913788.463 10 0 60074 38700.00000 0 -21588640.788 10963576.963 -8033831.810 10 0 60074 39600.00000 0 -20527793.558 10416385.336 -10997859.539 10 0 60074 40500.00000 0 -19248543.722 9557681.983 -13748335.874 10 0 60074 41400.00000 0 -17812018.201 8375798.702 -16231884.585 10 0 60074 42300.00000 0 -16282388.088 6872189.247 -18400322.107 10 0 60074 43200.00000 0 -14724157.555 5061626.935 -20211588.591 10 0 60074 44100.00000 0 -13199459.560 2971845.692 -21630559.310 10 0 60074 45000.00000 0 -11765471.468 642638.657 -22629721.274 10 0 60074 45900.00000 0 -10472058.333 -1875549.008 -23189702.614 10 0 60074 46800.00000 0 -9359741.806 -4523475.551 -23299645.073 10 0 60074 47700.00000 0 -8458078.961 -7235330.178 -22957412.853 10 0 60074 48600.00000 0 -7784518.049 -9941241.253 -22169634.036 10 0 60074 49500.00000 0 -7343778.351 -12569962.074 -20951573.804 10 0 60074 50400.00000 0 -7127779.489 -15051623.639 -19326841.663 10 0 60074 51300.00000 0 -7116122.663 -17320440.927 -17326937.920 10 0 60074 52200.00000 0 -7277103.271 -19317260.932 -14990647.588 10 0 60074 53100.00000 0 -7569212.153 -20991846.899 -12363292.802 10 0 60074 54000.00000 0 -7943062.133 -22304803.993 -9495857.603 10 0 60074 54900.00000 0 -8343658.559 -23229066.271 -6444001.529 10 0 60074 55800.00000 0 -8712917.882 -23750882.926 -3266980.826 10 0 60074 56700.00000 0 -8992327.621 -23870262.653 -26498.081 10 0 60074 57600.00000 0 -9125634.872 -23600857.582 3214497.303 10 0 60074 58500.00000 0 -9061449.104 -22969291.818 6393034.158 10 0 60074 59400.00000 0 -8755648.373 -22013962.991 9447345.922 10 0 60074 60300.00000 0 -8173486.363 -20783367.468 12318074.025 10 0 60074 61200.00000 0 -7291310.143 -19334019.980 14949424.379 10 0 60074 62100.00000 0 -6097815.020 -17728055.447 17290254.146 10 0 60074 63000.00000 0 -4594782.353 -16030614.111 19295067.417 10 0 60074 63900.00000 0 -2797268.042 -14307120.050 20924900.337 10 0 60074 64800.00000 0 -733232.491 -12620567.430 22148078.559 10 0 60074 65700.00000 0 1557373.678 -11028928.304 22940832.501 10 0 60074 66600.00000 0 4024031.081 -9582790.442 23287758.686 10 0 60074 67500.00000 0 6607521.896 -8323323.826 23182118.469 10 0 60074 68400.00000 0 9242172.026 -7280660.464 22625968.547 10 0 60074 69300.00000 0 11858372.474 -6472754.798 21630120.819 10 0 60074 70200.00000 0 14385275.603 -5904771.721 20213932.354 10 0 60074 71100.00000 0 16753554.617 -5569027.068 18404929.425 10 0 60074 72000.00000 0 18898111.696 -5445482.257 16238272.694 10 0 60074 72900.00000 0 20760622.297 -5502771.470 13756073.721 10 0 60074 73800.00000 0 22291809.794 -5699717.289 11006575.829 10 0 60074 74700.00000 0 23453355.698 -5987270.171 8043215.172 10 0 60074 75600.00000 0 24219365.945 -6310789.115 4923580.250 10 0 60074 76500.00000 0 24577332.243 -6612566.495 1708290.258 10 0 60074 77400.00000 0 24528548.668 -6834489.586 -1540185.600 10 0 60074 78300.00000 0 24087966.640 -6920725.575 -4758744.469 10 0 60074 79200.00000 0 23283495.037 -6820315.838 -7884877.798 10 0 60074 80100.00000 0 22154775.543 -6489569.162 -10857886.560 10 0 60074 81000.00000 0 20751485.398 -5894152.204 -13620059.855 10 0 60074 81900.00000 0 19131239.389 -5010788.337 -16117793.843 10 0 60074 82800.00000 0 17357179.645 -3828492.681 -18302629.357 10 0 60074 83700.00000 0 15495354.519 -2349290.659 -20132188.320 10 0 60074 84600.00000 0 13611996.415 -588389.145 -21570991.326 10 0 60074 85500.00000 0 11770812.243 1426207.807 -22591141.095 10 0 60075 0.00000 0 10030399.485 3654623.364 -23172859.195 10 0 60075 900.00000 0 8441894.220 6046536.143 -23304866.484 10 0 60075 1800.00000 0 7046950.827 8543050.839 -22984599.701 10 0 60075 2700.00000 0 5876133.695 11078938.522 -22218261.319 10 0 60075 3600.00000 0 4947789.537 13585151.607 -21020700.865 10 0 60075 4500.00000 0 4267445.595 15991511.127 -19415130.155 10 0 60075 5400.00000 0 3827758.315 18229455.253 -17432677.472 10 0 60075 6300.00000 0 3609013.937 20234735.452 -15111788.688 10 0 60075 7200.00000 0 3580159.479 21949948.469 -12497486.311 10 0 60075 8100.00000 0 3700320.361 23326798.890 -9640500.137 10 0 60075 9000.00000 0 3920740.381 24327997.951 -6596285.855 10 0 60075 9900.00000 0 4187061.945 24928719.152 -3423950.278 10 0 60075 10800.00000 0 4441849.859 25117549.648 -185103.969 10 0 60075 11700.00000 0 4627251.596 24896897.380 3057336.438 10 0 60075 12600.00000 0 4687680.924 24282836.741 6240372.589 10 0 60075 13500.00000 0 4572410.696 23304399.201 9302151.275 10 0 60075 14400.00000 0 4237964.273 22002338.694 12183169.470 10 0 60075 15300.00000 0 3650203.529 20427423.723 14827433.626 10 0 60075 16200.00000 0 2786024.186 18638328.063 17183550.325 10 0 60075 17100.00000 0 1634585.814 16699208.750 19205726.835 10 0 60075 18000.00000 0 198023.489 14677073.108 20854662.030 10 0 60075 18900.00000 0 -1508390.034 12639045.220 22098310.403 10 0 60075 19800.00000 0 -3456639.671 10649646.259 22912504.550 10 0 60075 20700.00000 0 -5606905.508 8768202.288 23281424.238 10 0 60075 21600.00000 0 -7909004.322 7046487.601 23197903.228 10 0 60075 22500.00000 0 -10304275.953 5526701.543 22663568.096 10 0 60075 23400.00000 0 -12727836.675 4239862.766 21688806.448 10 0 60075 24300.00000 0 -15111106.326 3204687.220 20292565.159 10 0 60075 25200.00000 0 -17384504.425 2426995.904 18501982.401 10 0 60075 26100.00000 0 -19480203.267 1899676.190 16351860.426 10 0 60075 27000.00000 0 -21334823.400 1603197.297 13883989.088 10 0 60075 27900.00000 0 -22891959.175 1506657.164 11146333.029 10 0 60075 28800.00000 0 -24104428.849 1569315.650 8192098.219 10 0 60075 29700.00000 0 -24936155.263 1742548.415 5078695.973 10 0 60075 30600.00000 0 -25363598.414 1972138.052 1866624.750 10 0 60075 31500.00000 0 -25376680.053 2200804.795 -1381708.223 10 0 60075 32400.00000 0 -24979161.814 2370868.950 -4603202.182 10 0 60075 33300.00000 0 -24188461.365 2426931.691 -7735290.830 10 0 60075 34200.00000 0 -23034914.765 2318460.150 -10717158.815 10 0 60075 35100.00000 0 -21560516.468 2002166.898 -13490922.684 10 0 60075 36000.00000 0 -19817190.318 1444082.744 -16002753.270 10 0 60075 36900.00000 0 -17864664.411 621234.841 -18203917.714 10 0 60075 37800.00000 0 -15768039.058 -477141.123 -20051721.213 10 0 60075 38700.00000 0 -13595149.626 -1848906.289 -21510330.710 10 0 60075 39600.00000 0 -11413834.269 -3478871.396 -22551465.137 10 0 60075 40500.00000 0 -9289220.159 -5339203.953 -23154939.530 10 0 60075 41400.00000 0 -7281140.718 -7390373.790 -23309053.098 10 0 60075 42300.00000 0 -5441790.695 -9582598.518 -23010814.199 10 0 60075 43200.00000 0 -3813715.822 -11857729.779 -22265998.185 10 0 60075 44100.00000 0 -2428219.811 -14151502.830 -21089037.026 10 0 60075 45000.00000 0 -1304254.110 -16396056.801 -19502742.606 10 0 60075 45900.00000 0 -447835.803 -18522621.638 -17537868.680 10 0 60075 46800.00000 0 147982.908 -20464260.545 -15232519.297 10 0 60075 47700.00000 0 502593.146 -22158554.067 -12631414.543 10 0 60075 48600.00000 0 646778.252 -23550114.101 -9785027.151 10 0 60075 49500.00000 0 621177.936 -24592822.865 -6748606.177 10 0 60075 50400.00000 0 474332.870 -25251702.954 -3581106.340 10 0 60075 51300.00000 0 260392.725 -25504339.899 -344043.639 10 0 60075 52200.00000 0 36585.004 -25341797.210 2899700.428 10 0 60075 53100.00000 0 -139447.734 -24768985.096 6087102.535 10 0 60075 54000.00000 0 -212328.924 -23804467.050 9156224.875 10 0 60075 54900.00000 0 -131533.146 -22479712.119 12047421.861 10 0 60075 55800.00000 0 146234.816 -20837824.093 14704502.217 10 0 60075 56700.00000 0 654968.504 -18931800.838 17075823.479 10 0 60075 57600.00000 0 1417684.338 -16822396.734 19115297.416 10 0 60075 58500.00000 0 2445213.905 -14575677.763 20783286.686 10 0 60075 59400.00000 0 3735515.912 -12260371.568 22047375.385 10 0 60075 60300.00000 0 5273537.822 -9945123.140 22882998.725 10 0 60075 61200.00000 0 7031634.081 -7695770.606 23273919.825 10 0 60075 62100.00000 0 8970524.468 -5572754.487 23212544.640 10 0 60075 63000.00000 0 11040753.463 -3628767.967 22700069.104 10 0 60075 63900.00000 0 13184590.512 -1906745.646 21746455.739 10 0 60075 64800.00000 0 15338292.541 -438273.800 20370240.186 10 0 60075 65700.00000 0 17434634.878 757512.340 18598171.264 10 0 60075 66600.00000 0 19405605.256 1674499.293 16464691.359 10 0 60075 67500.00000 0 21185148.627 2319611.248 14011266.980 10 0 60075 68400.00000 0 22711848.150 2712271.773 11285582.265 10 0 60075 69300.00000 0 23931430.150 2883335.086 8340610.980 10 0 60075 70200.00000 0 24798988.073 2873533.149 5233585.065 10 0 60075 71100.00000 0 25280832.126 2731505.117 2024879.886 10 0 60075 72000.00000 0 25355886.916 2511493.479 -1223161.783 10 0 60075 72900.00000 0 25016578.459 2270805.170 -4447443.793 10 0 60075 73800.00000 0 24269173.356 2067145.930 -7585344.620 10 0 60075 74700.00000 0 23133556.097 1955941.372 -10575934.987 10 0 60075 75600.00000 0 21642454.059 1987758.704 -13361161.137 10 0 60075 76500.00000 0 19840142.943 2205938.575 -15886970.617 10 0 60075 77400.00000 0 17780687.107 2644537.510 -18104358.707 10 0 60075 78300.00000 0 15525788.593 3326668.104 -19970315.514 10 0 60075 79200.00000 0 13142334.656 4263307.306 -21448655.789 10 0 60075 80100.00000 0 10699746.010 5452623.392 -22510715.983 10 0 60075 81000.00000 0 8267235.881 6879850.477 -23135905.711 10 0 60075 81900.00000 0 5911093.377 8517716.585 -23312103.580 10 0 60075 82800.00000 0 3692103.431 10327408.247 -23035890.208 10 0 60075 83700.00000 0 1663209.687 12260032.289 -22312614.232 10 0 60075 84600.00000 0 -132483.524 14258514.877 -21156290.101 10 0 60075 85500.00000 0 -1663287.975 16259859.566 -19589329.418 10 0 60076 0.00000 0 -2910022.403 18197670.950 -17642110.807 10 0 60076 900.00000 0 -3866573.528 20004840.397 -15352394.916 10 0 60076 1800.00000 0 -4539903.109 21616279.717 -12764597.917 10 0 60076 2700.00000 0 -4949503.752 22971592.268 -9928933.433 10 0 60076 3600.00000 0 -5126325.370 24017567.206 -6900441.493 10 0 60076 4500.00000 0 -5111218.765 24710393.268 -3737922.007 10 0 60076 5400.00000 0 -4952962.462 25017498.692 -502793.486 10 0 60076 6300.00000 0 -4705956.623 24918939.557 2742100.810 10 0 60076 7200.00000 0 -4427682.137 24408277.618 5933715.765 10 0 60076 8100.00000 0 -4176032.970 23492910.172 9010032.164 10 0 60076 9000.00000 0 -4006635.331 22193837.511 11911265.000 10 0 60076 9900.00000 0 -3970267.793 20544877.269 14581028.278 10 0 60076 10800.00000 0 -4110492.249 18591358.214 16967433.347 10 0 60076 11700.00000 0 -4461596.613 16388347.950 19024099.114 10 0 60076 12600.00000 0 -5046936.927 13998488.504 20711054.410 10 0 60076 13500.00000 0 -5877749.643 11489530.120 21995515.033 10 0 60076 14400.00000 0 -6952484.956 8931666.030 22852520.563 10 0 60076 15300.00000 0 -8256690.106 6394779.165 23265418.821 10 0 60076 16200.00000 0 -9763448.439 3945715.215 23226188.827 10 0 60076 17100.00000 0 -11434356.689 1645695.154 22735596.212 10 0 60076 18000.00000 0 -13221000.340 -452025.581 21803178.163 10 0 60076 18900.00000 0 -15066866.016 -2304154.493 20447058.206 10 0 60076 19800.00000 0 -16909611.479 -3878933.671 18693594.296 10 0 60076 20700.00000 0 -18683598.656 -5157221.069 16576866.833 10 0 60076 21600.00000 0 -20322583.936 -6133037.409 14138016.318 10 0 60076 22500.00000 0 -21762453.191 -6813557.043 11424443.257 10 0 60076 23400.00000 0 -22943886.816 -7218544.398 8488885.756 10 0 60076 24300.00000 0 -23814842.863 -7379261.026 5388392.691 10 0 60076 25200.00000 0 -24332753.820 -7336890.511 2183212.554 10 0 60076 26100.00000 0 -24466344.486 -7140548.857 -1064380.104 10 0 60076 27000.00000 0 -24196994.355 -6844965.493 -4291297.433 10 0 60076 27900.00000 0 -23519587.047 -6507933.848 -7434866.199 10 0 60076 28800.00000 0 -22442811.007 -6187640.152 -10434046.525 10 0 60076 29700.00000 0 -20988898.807 -5939984.076 -13230617.410 10 0 60076 30600.00000 0 -19192815.940 -5816004.979 -15770305.866 10 0 60076 31500.00000 0 -17100933.156 -5859522.867 -18003837.700 10 0 60076 32400.00000 0 -14769237.813 -6105093.874 -19887889.854 10 0 60076 33300.00000 0 -12261158.799 -6576366.668 -21385926.286 10 0 60076 34200.00000 0 -9645095.523 -7284909.176 -22468901.777 10 0 60076 35100.00000 0 -6991753.393 -8229555.273 -23115820.710 10 0 60076 36000.00000 0 -4371395.999 -9396299.259 -23314140.666 10 0 60076 36900.00000 0 -1851127.412 -10758743.186 -23060013.505 10 0 60076 37800.00000 0 507683.427 -12279078.973 -22358359.614 10 0 60076 38700.00000 0 2651730.308 -13909565.176 -21222773.941 10 0 60076 39600.00000 0 4537753.632 -15594437.484 -19675265.441 10 0 60076 40500.00000 0 6134099.132 -17272174.036 -17745834.565 10 0 60076 41400.00000 0 7421787.545 -18878021.583 -15471896.363 10 0 60076 42300.00000 0 8395051.540 -20346677.434 -12897559.704 10 0 60076 43200.00000 0 9061318.325 -21615015.267 -10072775.924 10 0 60076 44100.00000 0 9440639.495 -22624740.696 -7052372.804 10 0 60076 45000.00000 0 9564592.748 -23324865.045 -3894992.266 10 0 60076 45900.00000 0 9474702.394 -23673893.034 -661952.234 10 0 60076 46800.00000 0 9220445.873 -23641631.913 2583945.207 10 0 60076 47700.00000 0 8856931.076 -23210545.202 5779635.870 10 0 60076 48600.00000 0 8442343.266 -22376593.368 8863021.606 10 0 60076 49500.00000 0 8035270.191 -21149525.245 11774180.151 10 0 60076 50400.00000 0 7692019.194 -19552607.224 14456532.654 10 0 60076 51300.00000 0 7464040.412 -17621800.882 16857945.781 10 0 60076 52200.00000 0 7395565.597 -15404422.930 18931746.734 10 0 60076 53100.00000 0 7521562.919 -12957343.099 20637631.295 10 0 60076 54000.00000 0 7866094.642 -10344794.880 21942447.362 10 0 60076 54900.00000 0 8441147.480 -7635890.090 22820838.903 10 0 60076 55800.00000 0 9245985.508 -4901940.553 23255738.092 10 0 60076 56700.00000 0 10267053.409 -2213698.001 23238696.328 10 0 60076 57600.00000 0 11478434.800 361373.428 22770047.947 10 0 60076 58500.00000 0 12842846.958 2761679.172 21858903.547 10 0 60076 59400.00000 0 14313130.814 4933823.946 20522973.068 10 0 60076 60300.00000 0 15834174.224 6834593.032 18788221.946 10 0 60076 61200.00000 0 17345188.249 8432503.448 16688366.794 10 0 60076 62100.00000 0 18782241.199 9708861.353 14264220.171 10 0 60076 63000.00000 0 20080944.235 10658282.637 11562896.910 10 0 60076 63900.00000 0 21179175.658 11288656.093 8636897.300 10 0 60076 64800.00000 0 22019729.261 11620552.024 5543084.909 10 0 60076 65700.00000 0 22552775.078 11686102.426 2341579.044 10 0 60076 66600.00000 0 22738028.664 11527401.183 -905416.317 10 0 60076 67500.00000 0 22546537.249 11194492.925 -4134823.946 10 0 60076 68400.00000 0 21962007.237 10743036.549 -7283921.144 10 0 60076 69300.00000 0 20981616.897 10231743.039 -10291559.521 10 0 60076 70200.00000 0 19616279.783 9719696.616 -13099352.740 10 0 60076 71100.00000 0 17890347.588 9263672.935 -15652808.958 10 0 60076 72000.00000 0 15840764.638 8915567.976 -17902385.975 10 0 60076 72900.00000 0 13515709.180 8720046.282 -19804448.852 10 0 60076 73800.00000 0 10972777.867 8712507.762 -21322111.893 10 0 60076 74700.00000 0 8276788.804 8917458.669 -22425949.233 10 0 60076 75600.00000 0 5497294.052 9347355.253 -23094560.955 10 0 60076 76500.00000 0 2705904.357 10001968.770 -23314984.427 10 0 60076 77400.00000 0 -26463.596 10868298.693 -23082943.402 10 0 60076 78300.00000 0 -2632304.039 11921038.140 -22402930.431 10 0 60076 79200.00000 0 -5050091.421 13123572.563 -21288121.069 10 0 60076 80100.00000 0 -7226596.435 14429470.523 -19760121.363 10 0 60076 81000.00000 0 -9118853.679 15784404.836 -17848553.122 10 0 60076 81900.00000 0 -10695700.037 17128424.311 -15590484.380 10 0 60076 82800.00000 0 -11938820.640 18398481.472 -13029715.413 10 0 60076 83700.00000 0 -12843259.562 19531110.627 -10215933.470 10 0 60076 84600.00000 0 -13417374.688 20465144.077 -7203751.994 10 0 60076 85500.00000 0 -13682239.319 21144352.225 -4051652.584 99